August 17, 2022

Time Code Weather Temp. Visibility Ceiling Wind METAR/SPECI
07:20
M
18 °C 6 km 7,200 ft 040° 040° 3 kt METAR ETWM 170520Z 04003KT 6000 BKN072 18/17 Q1010 WHT
06:20
I
17 °C 4.1 km 14,000 ft 010° 010° 3 kt METAR ETWM 170420Z 01003KT 4100 BR SCT077 BKN140 BKN240 17/16 Q1010 GRN
05:20
L
16 °C 0 m - 030° 030° 2 kt METAR ETWM 170320Z AUTO 03002KT //// // ////// 16/15 Q1010 ///
04:20
L
16 °C 0 m - 010° 010° 2 kt METAR ETWM 170220Z AUTO 01002KT //// // ////// 16/15 Q1010 ///
03:20
L
16 °C 0 m - 010° 010° 3 kt METAR ETWM 170120Z AUTO 01003KT //// // ////// 16/16 Q1010 ///
02:20
L
17 °C 0 m - 040° 040° 2 kt METAR ETWM 170020Z AUTO 04002KT //// // ////// 17/16 Q1010 ///
01:20
L
19 °C 0 m - 050° 050° 2 kt METAR ETWM 162320Z AUTO 05002KT //// // ////// 19/17 Q1011 ///
00:20
L
19 °C 0 m - 320° 320° 1 kt METAR ETWM 162220Z AUTO 32001KT //// // ////// 19/17 Q1011 ///

August 16, 2022

Time Code Weather Temp. Visibility Ceiling Wind METAR/SPECI
23:20
L
21 °C 0 m - 020° 020° 3 kt METAR ETWM 162120Z AUTO 02003KT //// // ////// 21/18 Q1010 ///
22:20
L
22 °C 0 m - 010° 010° 5 kt METAR ETWM 162020Z AUTO 01005KT //// // ////// 22/18 Q1010 ///
21:20
L
23 °C 0 m - 340° 340° 2 kt METAR ETWM 161920Z AUTO 34002KT //// // ////// 23/15 Q1009 ///
20:20
L
26 °C 0 m - 340° 340° 3 kt METAR ETWM 161820Z AUTO 34003KT //// // ////// 26/15 Q1009 ///
19:20
L
27 °C 0 m - 290° 290° 3 kt METAR ETWM 161720Z AUTO 29003KT //// // ////// 27/14 Q1008 ///
18:20
L
29 °C 0 m - 220° 220° 3 kt METAR ETWM 161620Z AUTO 22003KT //// // ////// 29/12 Q1008 ///
17:20
L
30 °C 0 m - 260° 260° 5 kt METAR ETWM 161520Z AUTO 26005KT //// // ////// 30/11 Q1008 ///
16:20
L
30 °C 0 m - 290° 290° 6 kt METAR ETWM 161420Z AUTO 29006KT //// // ////// 30/11 Q1007 ///
15:20
L
30 °C 0 m - 250° 250° 7 - 18 kt METAR ETWM 161320Z AUTO 25007G18KT //// // ////// 30/11 Q1008 ///
14:20
V
29 °C 10 km+ - 220° 220° 8 kt METAR ETWM 161220Z 22008KT 9999 FEW055 29/13 Q1007 BLU+
13:20
V
28 °C 10 km+ - 210° 210° 8 kt METAR ETWM 161120Z 21008KT 9999 FEW048 28/13 Q1007 BLU+
12:20
V
27 °C 10 km+ - 220° 220° 8 kt METAR ETWM 161020Z 22008KT 9999 FEW045 27/15 Q1007 BLU+
11:20
V
26 °C 10 km+ - 210° 210° 7 kt METAR ETWM 160920Z 21007KT 9999 FEW040 26/16 Q1007 BLU+
10:20
V
24 °C 10 km+ - 190° 190° 4 kt METAR ETWM 160820Z 19004KT 9999 FEW100 24/16 Q1007 BLU+
09:20
V
23 °C 10 km+ - 170° 170° 5 kt METAR ETWM 160720Z 17005KT 9999 FEW060 23/16 Q1006 BLU+
08:20
V
20 °C 10 km+ - 190° 190° 3 kt METAR ETWM 160620Z 19003KT 9999 FEW060 20/17 Q1006 BLU+
07:20
V
17 °C 10 km+ - 180° 180° 2 kt METAR ETWM 160520Z 18002KT 9999 MIFG FEW060 17/17 Q1006 BLU+
06:20
V
18 °C 10 km+ 14,000 ft 190° 190° 2 kt METAR ETWM 160420Z 19002KT 9999 MIFG FEW060 SCT100 BKN140 18/17 Q1006 BLU
05:20
L
18 °C 0 m - 210° 210° 1 kt METAR ETWM 160320Z AUTO 21001KT //// // ////// 18/18 Q1005 ///
04:20
L
18 °C 0 m - 130° 130° 1 kt METAR ETWM 160220Z AUTO 13001KT //// // ////// 18/18 Q1006 ///
03:20
L
19 °C 0 m - Var Var 1 kt METAR ETWM 160120Z AUTO VRB01KT //// // ////// 19/18 Q1006 ///
02:20
L
19 °C 0 m - 360° 360° 1 kt METAR ETWM 160020Z AUTO 36001KT //// // ////// 19/18 Q1005 ///
01:20
L
19 °C 0 m - 190° 190° 1 kt METAR ETWM 152320Z AUTO 19001KT //// // ////// 19/19 Q1005 ///
00:20
L
20 °C 0 m - Var 000° 0 kt METAR ETWM 152220Z AUTO 00000KT //// // ////// 20/19 Q1005 ///

August 15, 2022

Time Code Weather Temp. Visibility Ceiling Wind METAR/SPECI
23:20
L
20 °C 0 m - 220° 220° 2 kt METAR ETWM 152120Z AUTO 22002KT //// // ////// 20/19 Q1005 ///
22:20
L
20 °C 0 m - 300° 300° 1 kt METAR ETWM 152020Z AUTO 30001KT //// // ////// 20/18 Q1005 ///
21:20
L
22 °C 0 m - 360° 360° 6 kt METAR ETWM 151920Z AUTO 36006KT //// // ////// 22/18 Q1004 ///
20:20
L
24 °C 0 m - 200° 200° 4 kt METAR ETWM 151820Z AUTO 20004KT //// // ////// 24/16 Q1004 ///
19:20
L
26 °C 0 m - Var Var 3 kt METAR ETWM 151720Z AUTO VRB03KT //// // ////// 26/15 Q1003 ///
18:20
L
27 °C 0 m - 250° 250° 7 kt METAR ETWM 151620Z AUTO 25007KT //// // ////// 27/15 Q1003 ///
17:20
L
26 °C 0 m - 210° 210° 4 kt METAR ETWM 151520Z AUTO 21004KT //// // ////// 26/16 Q1003 ///
16:20
L
26 °C 0 m - 180° 180° 8 kt METAR ETWM 151420Z AUTO 18008KT //// // ////// 26/16 Q1003 ///
15:20
L
27 °C 0 m - 210° 210° 10 kt METAR ETWM 151320Z AUTO 21010KT //// // ////// 27/16 Q1003 ///
14:20
V
26 °C 10 km+ 15,000 ft 180° 180° 4 kt METAR ETWM 151220Z 18004KT 9999 FEW040 BKN150 BKN220 26/16 Q1003 BLU
13:20
V
26 °C 10 km+ 16,000 ft 250° 250° 6 kt METAR ETWM 151120Z 25006KT 9999 FEW040 BKN160 BKN230 26/16 Q1003 BLU
12:20
V
28 °C 10 km+ 24,000 ft 200° 200° 4 kt METAR ETWM 151020Z 20004KT 9999 FEW040 SCT170 BKN240 28/15 Q1003 BLU+
11:20
V
25 °C 10 km+ 22,000 ft 170° 170° 5 kt METAR ETWM 150920Z 17005KT 9999 FEW040 SCT140 BKN220 25/14 Q1003 BLU+
10:20
V
27 °C 10 km+ 20,000 ft 130° 130° 5 kt METAR ETWM 150820Z 13005KT 9999 FEW040 SCT100 BKN200 27/14 Q1002 BLU+
09:20
V
24 °C 10 km+ 10,000 ft 120° 120° 4 kt METAR ETWM 150720Z 12004KT 9999 FEW040TCU BKN100 24/15 Q1002 BLU
08:20
V
22 °C 10 km+ 16,000 ft Var Var 2 kt METAR ETWM 150620Z VRB02KT 9999 FEW040TCU SCT120 BKN160 22/16 Q1002 BLU
07:20
V
19 °C 10 km+ 13,000 ft Var 000° 0 kt METAR ETWM 150520Z 00000KT 9999 FEW040 BKN130 19/16 Q1002 BLU
06:20
V
18 °C 10 km+ 13,000 ft Var 000° 0 kt METAR ETWM 150420Z 00000KT 9999 FEW080 BKN130 18/15 Q1002 BLU
05:20
L
17 °C 0 m - 010° 010° 1 kt METAR ETWM 150320Z AUTO 01001KT //// // ////// 17/15 Q1003 ///
Older data

We and third parties follow your internet behavior on our website with cookies. If you continue, we assume you agree with our cookie policy. Learn more